Simultaneous Nadir Overpasses (SNOs) Predictions

Prediction of SNOs between AQUA and GOES-15 Satellite Orbit:

Table of predicted SNOs for the next 14.0 days since TLE Epoch: 12/5/2015
Index Date Time (AQUA) AQUA Lat,Lon GOES-15 Lat,Lon Distance(km) Time Diff (sec)
1 12/06/2015 22:35:01 0.15,-134.92 0.04,-135.38 52.89 80
2 12/08/2015 22:22:49 0.73,-131.95 0.03,-135.35 386.27 80
3 12/09/2015 10:44:05 0.33,-137.11 -0.05,-135.37 198.22 80
4 12/11/2015 10:31:53 -0.26,-134.15 -0.04,-135.33 134.20 80
5 12/11/2015 22:53:17 -0.80,-139.35 0.06,-135.29 461.28 80
6 12/13/2015 10:19:42 -0.93,-131.20 -0.03,-135.29 465.79 80
7 12/13/2015 22:41:05 -0.19,-136.39 0.05,-135.25 129.68 80
8 12/15/2015 22:28:53 0.43,-133.42 0.05,-135.19 201.21 80
9 12/16/2015 10:50:09 0.63,-138.59 -0.06,-135.22 383.05 80
10 12/18/2015 10:37:56 0.07,-135.61 -0.06,-135.16 52.93 80




NCC Satellite Simultaneous Nadir Overpasses (SNOs) Prediction Service
